Gauley Below the Meadow [ USA-WVR ]

Edit Gauge

Current Conditions

Reading of "n/a" = frozen gauge or gauge error.
Reading Trend Type Updated
9868 cfs 17 cfs/hr Flow 01h31m

Station Description

AW Gauge ID: 43451
Source: virtual
Station: 6192
Enabled yes
Description:Summersville Gauley + the Meadow.
Calculation:$flow=$gauge[8515]->getValue(GMETRIC_FLOW,120*60)+$gauge[51285]->getValue(GMETRIC_FLOW,60*120);
Data is courtesy of AW's Stream Team program. This data is calculated based on other gauges and information provided by the Stream Team. This data, and any river data, should be used with caution.

Information

Flow

Gauge History

Times listed in GMT 24h, ET and PT hours provided for convenience Graphs in GMT. Readings of "n/a" constitute a frozen gauge or gauge error.
Reading Updated (GMT) Eastern Pacific Comment
9867.72 01/17/2017 03:12:00 Jan 16 10:12 pm Jan 16 7:12 pm
9851.13 01/17/2017 02:12:16 Jan 16 09:12 pm Jan 16 6:12 pm
9818.02 01/17/2017 01:12:32 Jan 16 08:12 pm Jan 16 5:12 pm
9818.02 01/17/2017 00:12:48 Jan 16 07:12 pm Jan 16 4:12 pm
9834.57 01/16/2017 23:13:04 Jan 16 06:13 pm Jan 16 3:13 pm
9785.00 01/16/2017 22:11:12 Jan 16 05:11 pm Jan 16 2:11 pm
9811.50 01/16/2017 21:11:28 Jan 16 04:11 pm Jan 16 1:11 pm
9867.72 01/16/2017 20:11:44 Jan 16 03:11 pm Jan 16 12:11 pm
9801.50 01/16/2017 19:12:00 Jan 16 02:12 pm Jan 16 11:12 am
9768.52 01/16/2017 18:12:16 Jan 16 01:12 pm Jan 16 10:12 am
9854.57 01/16/2017 17:12:32 Jan 16 12:12 pm Jan 16 9:12 am
9844.57 01/16/2017 16:12:48 Jan 16 11:12 am Jan 16 8:12 am
9795.00 01/16/2017 15:13:04 Jan 16 10:13 am Jan 16 7:13 am
9805.00 01/16/2017 14:11:12 Jan 16 09:11 am Jan 16 6:11 am
9795.00 01/16/2017 13:11:28 Jan 16 08:11 am Jan 16 5:11 am
9778.52 01/16/2017 12:11:44 Jan 16 07:11 am Jan 16 4:11 am
9745.63 01/16/2017 11:12:00 Jan 16 06:12 am Jan 16 3:12 am
9676.46 01/16/2017 10:12:16 Jan 16 05:12 am Jan 16 2:12 am
9735.63 01/16/2017 09:12:32 Jan 16 04:12 am Jan 16 1:12 am
9715.63 01/16/2017 08:12:48 Jan 16 03:12 am Jan 16 12:12 am
9765.00 01/16/2017 07:13:04 Jan 16 02:13 am Jan 15 11:13 pm
9656.46 01/16/2017 05:11:28 Jan 16 12:11 am Jan 15 9:11 pm
9722.07 01/16/2017 04:11:44 Jan 15 11:11 pm Jan 15 8:11 pm
9705.63 01/16/2017 03:12:00 Jan 15 10:12 pm Jan 15 7:12 pm
9722.07 01/16/2017 02:12:16 Jan 15 09:12 pm Jan 15 6:12 pm
9758.52 01/16/2017 01:12:32 Jan 15 08:12 pm Jan 15 5:12 pm
9748.52 01/16/2017 00:12:48 Jan 15 07:12 pm Jan 15 4:12 pm
9715.63 01/15/2017 23:13:04 Jan 15 06:13 pm Jan 15 3:13 pm
9762.07 01/15/2017 22:11:12 Jan 15 05:11 pm Jan 15 2:11 pm
9778.52 01/15/2017 21:11:28 Jan 15 04:11 pm Jan 15 1:11 pm
10462.50 01/15/2017 20:11:44 Jan 15 03:11 pm Jan 15 12:11 pm
10612.40 01/15/2017 19:12:00 Jan 15 02:12 pm Jan 15 11:12 am
10549.80 01/15/2017 18:12:16 Jan 15 01:12 pm Jan 15 10:12 am
10549.80 01/15/2017 17:12:32 Jan 15 12:12 pm Jan 15 9:12 am
10519.80 01/15/2017 16:12:48 Jan 15 11:12 am Jan 15 8:12 am
9656.46 01/15/2017 15:13:04 Jan 15 10:13 am Jan 15 7:13 am
8092.82 01/15/2017 14:11:12 Jan 15 09:11 am Jan 15 6:11 am
6688.18 01/15/2017 13:11:28 Jan 15 08:11 am Jan 15 5:11 am
6645.57 01/15/2017 12:11:44 Jan 15 07:11 am Jan 15 4:11 am
6628.18 01/15/2017 11:12:00 Jan 15 06:12 am Jan 15 3:12 am
6540.80 01/15/2017 10:12:16 Jan 15 05:12 am Jan 15 2:12 am
6470.80 01/15/2017 08:12:48 Jan 15 03:12 am Jan 15 12:12 am
6470.80 01/15/2017 07:13:04 Jan 15 02:13 am Jan 14 11:13 pm
6386.10 01/15/2017 06:11:12 Jan 15 01:11 am Jan 14 10:11 pm
6303.44 01/15/2017 05:11:28 Jan 15 12:11 am Jan 14 9:11 pm
6296.89 01/15/2017 04:11:44 Jan 14 11:11 pm Jan 14 8:11 pm
6201.46 01/15/2017 03:12:00 Jan 14 10:12 pm Jan 14 7:12 pm
6252.39 01/15/2017 02:12:16 Jan 14 09:12 pm Jan 14 6:12 pm
6083.44 01/15/2017 01:12:32 Jan 14 08:12 pm Jan 14 5:12 pm
6053.44 01/15/2017 00:12:48 Jan 14 07:12 pm Jan 14 4:12 pm
4832.82 01/14/2017 23:13:04 Jan 14 06:13 pm Jan 14 3:13 pm
4795.00 01/14/2017 22:11:12 Jan 14 05:11 pm Jan 14 2:11 pm
4795.00 01/14/2017 21:11:28 Jan 14 04:11 pm Jan 14 1:11 pm
4761.75 01/14/2017 20:11:44 Jan 14 03:11 pm Jan 14 12:11 pm
4785.00 01/14/2017 19:12:00 Jan 14 02:12 pm Jan 14 11:12 am
4773.90 01/14/2017 18:12:16 Jan 14 01:12 pm Jan 14 10:12 am
4772.82 01/14/2017 17:12:32 Jan 14 12:12 pm Jan 14 9:12 am
4762.82 01/14/2017 16:12:48 Jan 14 11:12 am Jan 14 8:12 am
4785.00 01/14/2017 15:13:04 Jan 14 10:13 am Jan 14 7:13 am
4772.82 01/14/2017 14:11:12 Jan 14 09:11 am Jan 14 6:11 am
4501.17 01/14/2017 13:11:28 Jan 14 08:11 am Jan 14 5:11 am
4384.05 01/14/2017 12:11:44 Jan 14 07:11 am Jan 14 4:11 am
4394.05 01/14/2017 11:12:00 Jan 14 06:12 am Jan 14 3:12 am
4372.94 01/14/2017 10:12:16 Jan 14 05:12 am Jan 14 2:12 am
4394.05 01/14/2017 09:12:32 Jan 14 04:12 am Jan 14 1:12 am
4404.05 01/14/2017 08:12:48 Jan 14 03:12 am Jan 14 12:12 am
4404.05 01/14/2017 07:13:04 Jan 14 02:13 am Jan 13 11:13 pm
4404.05 01/14/2017 06:11:12 Jan 14 01:11 am Jan 13 10:11 pm
4425.21 01/14/2017 05:11:28 Jan 14 12:11 am Jan 13 9:11 pm
4393.49 01/14/2017 04:11:44 Jan 13 11:11 pm Jan 13 8:11 pm
4414.62 01/14/2017 03:12:00 Jan 13 10:12 pm Jan 13 7:12 pm
4382.94 01/14/2017 02:12:16 Jan 13 09:12 pm Jan 13 6:12 pm
4247.52 01/14/2017 00:12:48 Jan 13 07:12 pm Jan 13 4:12 pm
4237.16 01/13/2017 23:13:04 Jan 13 06:13 pm Jan 13 3:13 pm
4247.52 01/13/2017 22:11:12 Jan 13 05:11 pm Jan 13 2:11 pm
4247.52 01/13/2017 21:11:28 Jan 13 04:11 pm Jan 13 1:11 pm
4226.82 01/13/2017 20:11:44 Jan 13 03:11 pm Jan 13 12:11 pm
4227.16 01/13/2017 19:12:00 Jan 13 02:12 pm Jan 13 11:12 am
4247.89 01/13/2017 18:12:16 Jan 13 01:12 pm Jan 13 10:12 am
4206.82 01/13/2017 16:12:48 Jan 13 11:12 am Jan 13 8:12 am
4073.67 01/13/2017 15:13:04 Jan 13 10:13 am Jan 13 7:13 am
4053.53 01/13/2017 13:11:28 Jan 13 08:11 am Jan 13 5:11 am
4013.20 01/13/2017 12:11:44 Jan 13 07:11 am Jan 13 4:11 am
4013.41 01/13/2017 11:12:00 Jan 13 06:12 am Jan 13 3:12 am
4003.41 01/13/2017 10:12:16 Jan 13 05:12 am Jan 13 2:12 am
3977.20 01/13/2017 09:12:32 Jan 13 04:12 am Jan 13 1:12 am
3967.20 01/13/2017 08:12:48 Jan 13 03:12 am Jan 13 12:12 am
3997.53 01/13/2017 07:13:04 Jan 13 02:13 am Jan 12 11:13 pm
3842.03 01/13/2017 06:11:12 Jan 13 01:11 am Jan 12 10:11 pm
3846.95 01/13/2017 05:11:28 Jan 13 12:11 am Jan 12 9:11 pm
3807.03 01/13/2017 04:11:44 Jan 12 11:11 pm Jan 12 8:11 pm
3892.12 01/13/2017 03:12:00 Jan 12 10:12 pm Jan 12 7:12 pm
3872.00 01/13/2017 02:12:16 Jan 12 09:12 pm Jan 12 6:12 pm
3868.12 01/13/2017 01:12:32 Jan 12 08:12 pm Jan 12 5:12 pm
3858.12 01/13/2017 00:12:48 Jan 12 07:12 pm Jan 12 4:12 pm
3848.05 01/12/2017 23:13:04 Jan 12 06:13 pm Jan 12 3:13 pm
2782.42 01/12/2017 22:11:12 Jan 12 05:11 pm Jan 12 2:11 pm
4009.16 01/12/2017 21:11:28 Jan 12 04:11 pm Jan 12 1:11 pm
4015.89 01/12/2017 20:11:44 Jan 12 03:11 pm Jan 12 12:11 pm
3693.03 01/12/2017 19:12:00 Jan 12 02:12 pm Jan 12 11:12 am
3684.95 01/12/2017 18:12:16 Jan 12 01:12 pm Jan 12 10:12 am
3456.74 01/12/2017 17:12:32 Jan 12 12:12 pm Jan 12 9:12 am
3438.74 01/12/2017 16:12:48 Jan 12 11:12 am Jan 12 8:12 am
3381.01 01/12/2017 15:13:04 Jan 12 10:13 am Jan 12 7:13 am
3376.44 01/12/2017 14:11:12 Jan 12 09:11 am Jan 12 6:11 am
2529.00 01/12/2017 13:11:28 Jan 12 08:11 am Jan 12 5:11 am
2645.22 01/12/2017 12:11:44 Jan 12 07:11 am Jan 12 4:11 am
2300.38 01/12/2017 11:12:00 Jan 12 06:12 am Jan 12 3:12 am
2261.14 01/12/2017 10:12:16 Jan 12 05:12 am Jan 12 2:12 am
2264.87 01/12/2017 09:12:32 Jan 12 04:12 am Jan 12 1:12 am
2268.87 01/12/2017 08:12:48 Jan 12 03:12 am Jan 12 12:12 am
2261.14 01/12/2017 07:13:04 Jan 12 02:13 am Jan 11 11:13 pm
2331.14 01/12/2017 06:11:12 Jan 12 01:11 am Jan 11 10:11 pm
2393.14 01/12/2017 05:11:28 Jan 12 12:11 am Jan 11 9:11 pm
2463.43 01/12/2017 04:11:44 Jan 11 11:11 pm Jan 11 8:11 pm
2529.14 01/12/2017 03:12:00 Jan 11 10:12 pm Jan 11 7:12 pm
2519.14 01/12/2017 02:12:16 Jan 11 09:12 pm Jan 11 6:12 pm
2514.14 01/12/2017 01:12:32 Jan 11 08:12 pm Jan 11 5:12 pm
2505.14 01/12/2017 00:12:48 Jan 11 07:12 pm Jan 11 4:12 pm
2512.87 01/11/2017 23:13:04 Jan 11 06:13 pm Jan 11 3:13 pm
2497.43 01/11/2017 22:11:12 Jan 11 05:11 pm Jan 11 2:11 pm
2509.14 01/11/2017 21:11:28 Jan 11 04:11 pm Jan 11 1:11 pm
2501.43 01/11/2017 20:11:44 Jan 11 03:11 pm Jan 11 12:11 pm
2509.14 01/11/2017 19:12:00 Jan 11 02:12 pm Jan 11 11:12 am
2514.14 01/11/2017 18:12:16 Jan 11 01:12 pm Jan 11 10:12 am
2521.43 01/11/2017 17:12:32 Jan 11 12:12 pm Jan 11 9:12 am
2540.43 01/11/2017 16:12:48 Jan 11 11:12 am Jan 11 8:12 am
2548.14 01/11/2017 15:13:04 Jan 11 10:13 am Jan 11 7:13 am
2563.14 01/11/2017 14:11:12 Jan 11 09:11 am Jan 11 6:11 am
2570.43 01/11/2017 13:11:28 Jan 11 08:11 am Jan 11 5:11 am
2572.74 01/11/2017 12:11:44 Jan 11 07:11 am Jan 11 4:11 am
2728.86 01/11/2017 11:12:00 Jan 11 06:12 am Jan 11 3:12 am
2707.02 01/11/2017 10:12:16 Jan 11 05:12 am Jan 11 2:12 am
2725.95 01/11/2017 09:12:32 Jan 11 04:12 am Jan 11 1:12 am
2745.95 01/11/2017 08:12:48 Jan 11 03:12 am Jan 11 12:12 am
2722.20 01/11/2017 07:13:04 Jan 11 02:13 am Jan 10 11:13 pm
2758.02 01/11/2017 06:11:12 Jan 11 01:11 am Jan 10 10:11 pm
2760.10 01/11/2017 05:11:28 Jan 11 12:11 am Jan 10 9:11 pm
2788.02 01/11/2017 04:11:44 Jan 10 11:11 pm Jan 10 8:11 pm
2808.02 01/11/2017 03:12:00 Jan 10 10:12 pm Jan 10 7:12 pm
2830.10 01/11/2017 02:12:16 Jan 10 09:12 pm Jan 10 6:12 pm
2858.02 01/11/2017 01:12:32 Jan 10 08:12 pm Jan 10 5:12 pm
2878.02 01/11/2017 00:12:48 Jan 10 07:12 pm Jan 10 4:12 pm
2893.91 01/10/2017 23:13:04 Jan 10 06:13 pm Jan 10 3:13 pm
2921.87 01/10/2017 22:11:12 Jan 10 05:11 pm Jan 10 2:11 pm
2925.95 01/10/2017 21:11:28 Jan 10 04:11 pm Jan 10 1:11 pm
2938.02 01/10/2017 20:11:44 Jan 10 03:11 pm Jan 10 12:11 pm
2940.10 01/10/2017 19:12:00 Jan 10 02:12 pm Jan 10 11:12 am
2993.91 01/10/2017 18:12:16 Jan 10 01:12 pm Jan 10 10:12 am
2988.02 01/10/2017 17:12:32 Jan 10 12:12 pm Jan 10 9:12 am
3018.02 01/10/2017 16:12:48 Jan 10 11:12 am Jan 10 8:12 am
3018.02 01/10/2017 15:13:04 Jan 10 10:13 am Jan 10 7:13 am
3075.95 01/10/2017 14:11:12 Jan 10 09:11 am Jan 10 6:11 am
3119.86 01/10/2017 13:11:28 Jan 10 08:11 am Jan 10 5:11 am
3159.86 01/10/2017 12:11:44 Jan 10 07:11 am Jan 10 4:11 am
3378.14 01/10/2017 11:12:00 Jan 10 06:12 am Jan 10 3:12 am
3416.52 01/10/2017 10:12:16 Jan 10 05:12 am Jan 10 2:12 am
3444.92 01/10/2017 09:12:32 Jan 10 04:12 am Jan 10 1:12 am
3464.92 01/10/2017 08:12:48 Jan 10 03:12 am Jan 10 12:12 am
3448.14 01/10/2017 07:13:04 Jan 10 02:13 am Jan 9 11:13 pm
3486.52 01/10/2017 06:11:12 Jan 10 01:11 am Jan 9 10:11 pm
3506.52 01/10/2017 05:11:28 Jan 10 12:11 am Jan 9 9:11 pm
3526.52 01/10/2017 04:11:44 Jan 9 11:11 pm Jan 9 8:11 pm
3538.14 01/10/2017 03:12:00 Jan 9 10:12 pm Jan 9 7:12 pm
3546.52 01/10/2017 02:12:16 Jan 9 09:12 pm Jan 9 6:12 pm
3546.52 01/10/2017 01:12:32 Jan 9 08:12 pm Jan 9 5:12 pm
3526.52 01/10/2017 00:12:48 Jan 9 07:12 pm Jan 9 4:12 pm
3534.92 01/09/2017 23:13:04 Jan 9 06:13 pm Jan 9 3:13 pm
3474.77 01/09/2017 22:11:12 Jan 9 05:11 pm Jan 9 2:11 pm
3305.95 01/09/2017 21:11:28 Jan 9 04:11 pm Jan 9 1:11 pm
3140.29 01/09/2017 20:11:44 Jan 9 03:11 pm Jan 9 12:11 pm
3080.67 01/09/2017 19:12:00 Jan 9 02:12 pm Jan 9 11:12 am
2885.05 01/09/2017 18:12:16 Jan 9 01:12 pm Jan 9 10:12 am
2855.05 01/09/2017 17:12:32 Jan 9 12:12 pm Jan 9 9:12 am
2835.05 01/09/2017 16:12:48 Jan 9 11:12 am Jan 9 8:12 am
3171.87 01/09/2017 15:13:04 Jan 9 10:13 am Jan 9 7:13 am
3128.74 01/09/2017 14:11:12 Jan 9 09:11 am Jan 9 6:11 am
3598.14 01/09/2017 13:11:28 Jan 9 08:11 am Jan 9 5:11 am
3698.14 01/09/2017 12:11:44 Jan 9 07:11 am Jan 9 4:11 am
3668.14 01/09/2017 11:12:00 Jan 9 06:12 am Jan 9 3:12 am
3638.14 01/09/2017 10:12:16 Jan 9 05:12 am Jan 9 2:12 am
3768.14 01/09/2017 09:12:32 Jan 9 04:12 am Jan 9 1:12 am
3738.14 01/09/2017 08:12:48 Jan 9 03:12 am Jan 9 12:12 am
3738.14 01/09/2017 07:13:04 Jan 9 02:13 am Jan 8 11:13 pm
3768.14 01/09/2017 06:11:12 Jan 9 01:11 am Jan 8 10:11 pm
3798.14 01/09/2017 05:11:28 Jan 9 12:11 am Jan 8 9:11 pm
3948.14 01/09/2017 04:11:44 Jan 8 11:11 pm Jan 8 8:11 pm
3866.52 01/09/2017 03:12:00 Jan 8 10:12 pm Jan 8 7:12 pm
3778.14 01/09/2017 02:12:16 Jan 8 09:12 pm Jan 8 6:12 pm
3965.66 01/09/2017 01:12:32 Jan 8 08:12 pm Jan 8 5:12 pm
3725.66 01/09/2017 00:12:48 Jan 8 07:12 pm Jan 8 4:12 pm
3725.66 01/08/2017 23:13:04 Jan 8 06:13 pm Jan 8 3:13 pm
3455.66 01/08/2017 22:11:12 Jan 8 05:11 pm Jan 8 2:11 pm
3308.68 01/08/2017 21:11:28 Jan 8 04:11 pm Jan 8 1:11 pm
3171.77 01/08/2017 20:11:44 Jan 8 03:11 pm Jan 8 12:11 pm
3041.77 01/08/2017 19:12:00 Jan 8 02:12 pm Jan 8 11:12 am
2893.42 01/08/2017 18:12:16 Jan 8 01:12 pm Jan 8 10:12 am
2727.13 01/08/2017 17:12:32 Jan 8 12:12 pm Jan 8 9:12 am
2650.13 01/08/2017 16:12:48 Jan 8 11:12 am Jan 8 8:12 am
3237.86 01/08/2017 15:13:04 Jan 8 10:13 am Jan 8 7:13 am
3224.41 01/08/2017 14:11:12 Jan 8 09:11 am Jan 8 6:11 am
3331.44 01/08/2017 13:11:28 Jan 8 08:11 am Jan 8 5:11 am
3410.76 01/08/2017 12:11:44 Jan 8 07:11 am Jan 8 4:11 am
3430.76 01/08/2017 11:12:00 Jan 8 06:12 am Jan 8 3:12 am
3463.56 01/08/2017 10:12:16 Jan 8 05:12 am Jan 8 2:12 am
3478.56 01/08/2017 09:12:32 Jan 8 04:12 am Jan 8 1:12 am
3498.56 01/08/2017 08:12:48 Jan 8 03:12 am Jan 8 12:12 am
3479.76 01/08/2017 07:13:04 Jan 8 02:13 am Jan 7 11:13 pm
3528.56 01/08/2017 06:11:12 Jan 8 01:11 am Jan 7 10:11 pm
3515.76 01/08/2017 05:11:28 Jan 8 12:11 am Jan 7 9:11 pm
3535.76 01/08/2017 04:11:44 Jan 7 11:11 pm Jan 7 8:11 pm
3565.16 01/08/2017 03:12:00 Jan 7 10:12 pm Jan 7 7:12 pm
3613.42 01/08/2017 02:12:16 Jan 7 09:12 pm Jan 7 6:12 pm
4022.96 01/08/2017 01:12:32 Jan 7 08:12 pm Jan 7 5:12 pm
4032.96 01/08/2017 00:12:48 Jan 7 07:12 pm Jan 7 4:12 pm
4185.06 01/07/2017 23:13:04 Jan 7 06:13 pm Jan 7 3:13 pm
4225.06 01/07/2017 22:11:12 Jan 7 05:11 pm Jan 7 2:11 pm
4285.87 01/07/2017 21:11:28 Jan 7 04:11 pm Jan 7 1:11 pm
4337.16 01/07/2017 20:11:44 Jan 7 03:11 pm Jan 7 12:11 pm
4367.52 01/07/2017 19:12:00 Jan 7 02:12 pm Jan 7 11:12 am
4397.89 01/07/2017 18:12:16 Jan 7 01:12 pm Jan 7 10:12 am
4469.52 01/07/2017 17:12:32 Jan 7 12:12 pm Jan 7 9:12 am
4605.81 01/07/2017 16:12:48 Jan 7 11:12 am Jan 7 8:12 am
4605.81 01/07/2017 15:13:04 Jan 7 10:13 am Jan 7 7:13 am
4970.69 01/07/2017 14:11:12 Jan 7 09:11 am Jan 7 6:11 am
6450.83 01/07/2017 13:11:28 Jan 7 08:11 am Jan 7 5:11 am
6532.67 01/07/2017 12:11:44 Jan 7 07:11 am Jan 7 4:11 am
6578.69 01/07/2017 11:12:00 Jan 7 06:12 am Jan 7 3:12 am
6585.67 01/07/2017 10:12:16 Jan 7 05:12 am Jan 7 2:12 am
6605.67 01/07/2017 09:12:32 Jan 7 04:12 am Jan 7 1:12 am
6625.67 01/07/2017 08:12:48 Jan 7 03:12 am Jan 7 12:12 am
6625.67 01/07/2017 07:13:04 Jan 7 02:13 am Jan 6 11:13 pm
6642.67 01/07/2017 06:11:12 Jan 7 01:11 am Jan 6 10:11 pm
6682.67 01/07/2017 05:11:28 Jan 7 12:11 am Jan 6 9:11 pm
6728.69 01/07/2017 04:11:44 Jan 6 11:11 pm Jan 6 8:11 pm
6709.69 01/07/2017 03:12:00 Jan 6 10:12 pm Jan 6 7:12 pm
6752.67 01/07/2017 02:12:16 Jan 6 09:12 pm Jan 6 6:12 pm
6733.77 01/07/2017 01:12:32 Jan 6 08:12 pm Jan 6 5:12 pm
6763.77 01/07/2017 00:12:48 Jan 6 07:12 pm Jan 6 4:12 pm
6763.77 01/06/2017 23:13:04 Jan 6 06:13 pm Jan 6 3:13 pm
6885.67 01/06/2017 22:11:12 Jan 6 05:11 pm Jan 6 2:11 pm
6876.72 01/06/2017 21:11:28 Jan 6 04:11 pm Jan 6 1:11 pm
6896.72 01/06/2017 20:11:44 Jan 6 03:11 pm Jan 6 12:11 pm
6939.69 01/06/2017 19:12:00 Jan 6 02:12 pm Jan 6 11:12 am
6953.77 01/06/2017 18:12:16 Jan 6 01:12 pm Jan 6 10:12 am
6960.83 01/06/2017 17:12:32 Jan 6 12:12 pm Jan 6 9:12 am
7000.83 01/06/2017 16:12:48 Jan 6 11:12 am Jan 6 8:12 am
8453.75 01/06/2017 15:13:04 Jan 6 10:13 am Jan 6 7:13 am
8459.45 01/06/2017 14:11:12 Jan 6 09:11 am Jan 6 6:11 am
10244.20 01/06/2017 13:11:28 Jan 6 08:11 am Jan 6 5:11 am
10240.10 01/06/2017 12:11:44 Jan 6 07:11 am Jan 6 4:11 am
10382.60 01/06/2017 11:12:00 Jan 6 06:12 am Jan 6 3:12 am
10368.30 01/06/2017 10:12:16 Jan 6 05:12 am Jan 6 2:12 am
10459.70 01/06/2017 09:12:32 Jan 6 04:12 am Jan 6 1:12 am
10499.70 01/06/2017 08:12:48 Jan 6 03:12 am Jan 6 12:12 am
10448.30 01/06/2017 07:13:04 Jan 6 02:13 am Jan 5 11:13 pm
10491.20 01/06/2017 06:11:12 Jan 6 01:11 am Jan 5 10:11 pm
10541.20 01/06/2017 05:11:28 Jan 6 12:11 am Jan 5 9:11 pm
10547.10 01/06/2017 04:11:44 Jan 5 11:11 pm Jan 5 8:11 pm
10638.30 01/06/2017 03:12:00 Jan 5 10:12 pm Jan 5 7:12 pm
10726.90 01/06/2017 02:12:16 Jan 5 09:12 pm Jan 5 6:12 pm
10657.10 01/06/2017 01:12:32 Jan 5 08:12 pm Jan 5 5:12 pm
10677.10 01/06/2017 00:12:48 Jan 5 07:12 pm Jan 5 4:12 pm
10609.20 01/05/2017 23:13:04 Jan 5 06:13 pm Jan 5 3:13 pm
10808.30 01/05/2017 22:11:12 Jan 5 05:11 pm Jan 5 2:11 pm
10916.90 01/05/2017 21:11:28 Jan 5 04:11 pm Jan 5 1:11 pm
10827.10 01/05/2017 20:11:44 Jan 5 03:11 pm Jan 5 12:11 pm
12477.00 01/05/2017 19:12:00 Jan 5 02:12 pm Jan 5 11:12 am
12421.30 01/05/2017 18:12:16 Jan 5 01:12 pm Jan 5 10:12 am
12432.30 01/05/2017 17:12:32 Jan 5 12:12 pm Jan 5 9:12 am
12472.30 01/05/2017 16:12:48 Jan 5 11:12 am Jan 5 8:12 am
12529.50 01/05/2017 15:13:04 Jan 5 10:13 am Jan 5 7:13 am
12523.20 01/05/2017 14:11:12 Jan 5 09:11 am Jan 5 6:11 am
12525.30 01/05/2017 13:11:28 Jan 5 08:11 am Jan 5 5:11 am
12641.30 01/05/2017 12:11:44 Jan 5 07:11 am Jan 5 4:11 am
12691.30 01/05/2017 11:12:00 Jan 5 06:12 am Jan 5 3:12 am
12711.30 01/05/2017 10:12:16 Jan 5 05:12 am Jan 5 2:12 am
12693.20 01/05/2017 09:12:32 Jan 5 04:12 am Jan 5 1:12 am
12713.20 01/05/2017 08:12:48 Jan 5 03:12 am Jan 5 12:12 am
12751.30 01/05/2017 07:13:04 Jan 5 02:13 am Jan 4 11:13 pm
12812.30 01/05/2017 06:11:12 Jan 5 01:11 am Jan 4 10:11 pm
12726.30 01/05/2017 05:11:28 Jan 5 12:11 am Jan 4 9:11 pm
12794.20 01/05/2017 04:11:44 Jan 4 11:11 pm Jan 4 8:11 pm
12814.20 01/05/2017 03:12:00 Jan 4 10:12 pm Jan 4 7:12 pm
12814.20 01/05/2017 02:12:16 Jan 4 09:12 pm Jan 4 6:12 pm
12843.20 01/05/2017 01:12:32 Jan 4 08:12 pm Jan 4 5:12 pm
12863.20 01/05/2017 00:12:48 Jan 4 07:12 pm Jan 4 4:12 pm
12901.30 01/04/2017 23:13:04 Jan 4 06:13 pm Jan 4 3:13 pm
12864.20 01/04/2017 22:11:12 Jan 4 05:11 pm Jan 4 2:11 pm
12930.40 01/04/2017 21:11:28 Jan 4 04:11 pm Jan 4 1:11 pm
12816.30 01/04/2017 20:11:44 Jan 4 03:11 pm Jan 4 12:11 pm
12843.20 01/04/2017 19:12:00 Jan 4 02:12 pm Jan 4 11:12 am
12784.20 01/04/2017 18:12:16 Jan 4 01:12 pm Jan 4 10:12 am
12735.30 01/04/2017 17:12:32 Jan 4 12:12 pm Jan 4 9:12 am
12725.30 01/04/2017 16:12:48 Jan 4 11:12 am Jan 4 8:12 am
12725.30 01/04/2017 15:13:04 Jan 4 10:13 am Jan 4 7:13 am
11574.90 01/04/2017 14:11:12 Jan 4 09:11 am Jan 4 6:11 am
11025.40 01/04/2017 13:11:28 Jan 4 08:11 am Jan 4 5:11 am
9836.51 01/04/2017 12:11:44 Jan 4 07:11 am Jan 4 4:11 am
9792.78 01/04/2017 11:12:00 Jan 4 06:12 am Jan 4 3:12 am

Report - Reports of Related Gauges

Reports give the public a chance to report on river conditions throughout the country as well as log the history of a river.

Reports

When River/Gauge Subject Level Reporter
7y237d16h39m Gauley Below the Meadow [WV] Account of 05/26/09 600 cfs Ryan Groth

Linked Reaches

Click a heading to sort. Hover over a heading for help.
River Name/Section Class Level running? Updated
Gauley [WV] 8 (Middle). Mason Branch to Bucklick Branch III+(IV) 9868 cfs
+ 17 cfs/hr
H9-
Above Recom.
01h31m
Gauley [WV] 9 (Lower). Bucklick Branch to Swiss III-IV(V) 11400 cfs
0 cfs/hr
R7-
Upper Runnable
00h44m

Associated Gauges

Disclaimer Data Sources

Gauley at Summersville (cfs) (AW#8515)

7958 cfs 01h01m

MEADOW RIVER AT NALLEN, WV (AW#51285)

1870 cfs 00h29m

MEADOW RIVER AT NALLEN, WV (AW#51285)

8.00 ft 00h29m